Location: Alphaba - Cockrum - Ingrams Mill Volunteer Fire Department Station 2
(34.7915°N, 89.7598°W)
Time: 22:36:52
(UTC+00:00)

Okean 1-7 Rocket - Visible Passes

Search period start: 13 March 2026 00:00
Search period end: 23 March 2026 00:00
Orbit: 611 x 642 km, 82.5° (Epoch: 13 March)

Date Brightness Start Highest point End Pass type
(mag) Time Alt. Az. Time Alt. Az. Time Alt. Az.
13 Mar 4.1 00:52:16 10° SSW 00:56:45 67° W 01:01:16 10° N visible
13 Mar 6.3 11:06:14 10° NNE 11:09:44 22° ENE 11:13:12 10° SE visible
14 Mar 5.6 01:12:27 10° SW 01:16:29 32° WNW 01:20:32 10° NNW visible
14 Mar 4.8 11:25:15 10° N 11:29:32 46° E 11:33:44 10° SSE visible
15 Mar 6.8 01:33:33 10° WSW 01:36:20 16° WNW 01:39:09 10° NW visible
16 Mar 6.8 10:28:04 10° NE 10:30:36 15° ENE 10:33:06 10° ESE visible
17 Mar 4.8 00:33:05 10° SSW 00:37:27 49° W 00:41:51 10° N visible
17 Mar 5.7 10:46:35 10° NNE 10:50:28 30° ENE 10:54:18 10° SE visible
18 Mar 6.3 00:53:34 10° SW 00:57:14 24° WNW 01:00:54 10° NNW visible
18 Mar 4.1 11:05:49 10° N 11:10:13 64° E 11:14:32 10° SSE visible
19 Mar 7.1 01:15:24 10° W 01:17:08 12° WNW 01:18:52 10° NW visible
19 Mar 3.6 11:25:29 10° NNW 11:29:49 59° W 11:34:06 10° S visible
20 Mar 6.3 10:08:08 10° NNE 10:11:21 20° ENE 10:14:33 10° ESE visible
21 Mar 5.0 10:27:00 10° N 10:31:09 40° E 10:35:16 10° SSE visible
22 Mar 6.8 00:34:52 10° WSW 00:37:59 18° WNW 00:41:05 10° NNW visible
22 Mar 3.5 10:46:26 10° N 10:50:51 87° E 10:55:12 10° S visible
